EHI
1 0 0 0 0 0 0 0 0 0 0 0 2 5 8 9 9 9 10 10 12 16 16 14 14 13 9 7 6 7 7 5 4 4 4 4 2 1 0 0 0 0 0 0
1 0 0 0 0 0 0 0 0 0 0 1 3 6 8 9 9 9 10 10 13 15 15 14 12 10 7 6 7 7 7 6 6 6 5 4 2 1 0 0 0 0 0 0
1 0 0 0 0 0 0 0 0 0 0 1 3 6 8 9 10 10 10 10 12 14 13 10 8 6 5 6 8 7 7 7 8 8 6 4 2 1 0 0 1 1 1 1
0 0 0 0 0 0 0 0 0 0 1 2 4 6 7 8 8 9 10 10 10 9 8 6 5 4 4 6 8 8 8 8 9 8 5 3 1 0 0 1 2 3 3 2
0 0 0 0 0 0 0 0 0 1 3 6 7 6 5 5 6 8 9 8 7 6 4 4 4 4 4 6 8 9 9 9 8 6 3 1 0 0 1 2 3 4 4 4
0 0 0 0 0 0 0 0 0 2 6 8 7 5 3 3 5 7 7 6 6 4 3 4 5 5 5 7 9 9 9 8 7 5 1 0 0 0 1 2 1 2 3 3
0 0 0 0 0 0 0 0 1 3 6 7 4 2 2 3 5 5 5 6 6 5 5 6 7 7 7 8 9 10 9 9 8 5 2 0 0 0 1 1 0 0 1 2
0 0 0 0 0 0 0 0 1 2 5 5 3 2 2 4 4 4 5 7 8 8 9 9 9 9 9 9 8 8 7 7 7 5 1 0 0 0 0 1 0 0 0 1
0 0 0 0 0 0 0 0 0 1 2 3 2 2 2 4 5 4 5 7 9 11 11 11 10 10 9 8 6 5 4 4 4 3 1 0 0 0 0 0 0 0 0 1
0 0 0 0 0 0 0 0 0 0 1 2 1 1 2 4 4 3 4 5 7 9 10 10 9 8 7 5 4 3 3 3 3 2 1 0 0 0 0 0 0 0 0 1
0 0 0 0 0 0 0 0 0 0 1 1 0 0 1 3 3 2 3 5 5 6 7 7 7 6 5 4 3 4 4 3 3 2 1 0 0 0 0 0 0 0 0 0
0 0 0 0 0 0 0 0 0 0 0 0 0 0 0 1 1 2 4 5 5 5 5 5 5 6 5 3 4 4 4 4 3 2 1 0 0 0 0 0 0 0 0 0
0 0 0 0 0 0 0 1 1 0 0 0 0 0 0 0 1 2 4 5 5 5 6 5 6 7 5 4 3 4 4 3 3 2 1 0 0 0 0 0 0 0 0 0
0 0 0 0 1 1 2 2 2 1 0 0 0 0 0 0 0 1 3 4 5 6 6 6 6 6 4 3 3 3 3 3 2 1 0 0 0 0 0 0 0 0 0 0
0 0 0 2 3 4 3 3 2 1 0 0 0 0 0 0 0 1 2 3 4 6 6 7 7 5 4 3 3 3 3 2 1 0 0 0 0 0 0 0 0 0 0 0
0 0 1 3 4 4 2 1 1 1 0 0 0 0 0 0 0 1 2 3 4 6 6 7 7 5 4 3 3 3 1 1 0 0 0 0 0 0 0 0 0 0 0 0
0 0 0 1 2 1 0 0 0 0 0 0 0 0 0 0 0 0 2 3 4 5 6 7 6 5 3 2 2 2 1 0 0 0 0 0 0 0 0 0 0 0 0 0
0 0 0 0 0 0 0 0 0 0 0 0 0 0 0 0 0 1 2 3 4 5 5 6 5 3 1 1 1 1 0 0 0 0 0 0 0 0 0 0 0 0 0 0
0 0 0 0 0 0 0 0 0 0 0 0 0 0 1 0 0 1 2 3 4 4 4 4 2 1 0 0 0 0 0 0 0 0 0 0 0 0 0 0 0 0 0 0
0 0 0 0 0 0 0 0 0 0 0 0 0 0 0 0 0 0 1 2 4 4 3 2 1 0 0 0 0 0 0 0 0 0 0 0 0 0 0 0 0 0 0 0
0 0 0 0 0 0 0 0 0 0 0 0 0 0 0 0 0 0 0 1 2 2 2 1 1 1 0 0 0 0 0 0 0 0 0 0 0 0 0 0 0 0 0 0
0 0 0 0 0 0 0 0 0 0 0 0 0 0 0 0 0 0 1 2 2 1 1 1 1 0 0 0 0 0 0 0 0 0 0 0 0 0 0 0 0 0 0 0
0 0 0 0 0 0 0 0 0 0 0 0 0 0 0 0 0 0 1 2 2 1 1 2 1 0 0 0 0 0 0 0 0 0 0 0 0 0 0 0 0 0 0 0
0 0 0 0 0 0 0 0 0 0 0 0 0 0 0 0 0 0 0 1 1 1 1 1 0 0 0 0 0 0 0 0 0 0 0 0 0 0 0 0 0 0 0 0
0 0 0 0 0 0 0 0 0 0 0 0 0 0 0 0 0 0 0 0 0 0 0 0 0 0 0 1 0 0 0 0 0 0 0 0 0 0 0 0 0 0 0 0
0 0 0 0 0 0 0 0 0 0 0 0 0 0 0 0 0 0 0 0 0 0 0 0 0 0 0 0 0 0 0 0 0 0 0 0 0 0 0 0 0 0 0 0
0 0 0 0 0 0 0 0 0 0 0 0 0 0 0 0 0 0 0 0 0 0 0 0 0 0 0 0 0 0 0 0 0 0 0 0 0 0 0 0 0 0 0 0
Wind_Speed
3 3 3 3 3 4 5 6 7 6 6 7 5 4 3 3 3 4 4 4 5 5 4 4 4 4 4 4 3 4 4 3 3 2 2 1 1 1 1 1 0 0 0 1
0 1 2 1 2 3 3 3 4 2 5 4 1 2 2 3 5 5 5 5 5 5 5 5 5 5 4 4 3 3 4 3 2 2 1 1 1 1 1 1 0 0 0 0
2 2 1 2 3 3 2 2 3 4 5 0 1 2 4 5 5 6 6 5 5 5 5 5 5 5 5 4 4 4 4 3 3 2 2 1 1 1 1 1 1 0 0 1
2 2 4 7 2 2 3 1 1 2 2 1 2 2 1 2 4 4 4 4 4 4 4 4 4 4 4 4 4 4 3 2 2 2 2 1 1 1 1 1 1 1 1 1
3 3 4 5 2 2 3 2 1 1 1 2 2 3 2 1 1 3 4 4 4 4 4 3 4 4 4 4 3 3 3 2 2 2 2 2 1 1 1 1 1 1 1 1
4 3 6 6 3 1 3 3 1 1 2 1 2 1 3 1 0 1 2 2 3 4 4 4 3 4 5 4 3 3 3 2 2 2 2 2 2 1 1 1 1 0 1 1
3 3 6 5 5 1 4 6 3 2 3 3 2 3 2 0 1 2 2 3 4 4 4 4 4 5 5 4 3 2 2 2 2 1 1 2 1 1 1 1 1 0 1 2
4 3 6 4 2 3 4 2 0 1 2 2 1 1 1 1 2 2 3 3 4 4 3 3 4 5 5 3 2 2 3 2 2 1 1 2 2 1 1 1 1 0 1 2
6 6 4 2 1 2 1 0 1 1 1 2 2 1 1 1 1 1 2 2 3 4 4 2 3 4 4 2 2 2 3 2 1 2 1 1 2 1 1 1 0 0 1 2
2 3 3 2 2 1 0 1 1 2 2 3 2 2 1 1 1 1 2 2 2 4 4 2 2 3 3 2 2 3 2 2 1 2 1 1 1 1 1 1 1 1 1 2
2 3 3 3 1 1 2 2 3 2 2 3 4 2 2 1 1 1 2 2 3 3 3 2 3 3 3 3 3 3 2 1 1 1 1 0 0 1 1 2 2 2 2 2
5 5 4 4 3 1 1 1 2 3 2 2 3 3 2 1 1 2 2 2 2 2 2 2 3 3 2 2 3 3 2 1 1 1 1 1 0 1 2 1 1 0 1 1
4 2 3 3 2 1 1 1 2 2 3 3 2 3 3 1 1 2 2 2 1 1 2 2 2 2 1 2 2 3 2 2 1 1 1 1 1 1 1 3 3 1 1 1
3 1 1 1 1 0 2 2 3 3 3 3 2 2 2 2 1 2 1 1 1 2 2 2 2 1 2 2 2 2 2 2 2 1 1 1 1 1 1 1 1 2 2 2
2 2 3 1 0 1 2 3 3 2 2 2 2 2 2 1 1 1 0 1 2 2 2 2 2 2 2 2 3 2 2 1 1 1 1 1 1 1 1 1 1 1 2 3
0 1 2 2 1 1 2 3 3 2 2 1 1 1 1 1 1 1 1 1 2 2 2 2 2 2 2 2 2 2 1 1 1 1 0 0 0 1 1 1 1 1 2 2
3 2 2 1 2 2 2 2 3 3 3 2 2 1 0 1 1 0 0 1 2 2 2 2 2 1 2 2 2 1 1 1 1 1 0 1 1 1 1 1 1 2 2 2
3 4 4 5 4 3 2 1 1 2 2 3 2 1 1 1 1 1 1 0 0 0 1 1 2 2 1 1 1 1 1 1 1 1 1 1 1 1 1 2 2 2 2 2
2 2 2 2 3 3 3 2 2 2 2 2 2 2 2 1 1 1 0 1 1 1 2 1 2 1 1 1 1 1 1 1 0 1 1 1 1 1 2 2 2 3 2 2
1 2 2 2 2 2 2 2 2 1 2 3 3 2 1 1 1 1 1 1 2 2 2 1 1 1 1 1 1 1 1 1 1 1 1 1 1 2 2 2 3 3 3 3
2 2 2 2 1 1 2 2 3 2 2 2 3 3 3 2 2 2 2 2 2 1 2 2 1 1 1 1 1 1 1 1 1 2 2 2 2 2 2 2 3 3 3 3
1 2 2 2 1 1 1 2 2 3 2 2 2 2 2 2 2 1 2 3 2 2 2 1 1 1 1 1 1 1 1 1 2 2 2 2 2 2 3 3 3 3 3 3
2 2 2 2 2 2 1 1 2 3 3 3 3 4 4 3 3 2 3 2 2 3 2 2 2 3 2 1 1 1 1 2 2 2 2 2 2 2 3 3 3 3 3 3
1 2 2 2 2 2 1 1 1 2 2 2 3 3 3 2 2 2 2 2 3 2 1 2 3 3 2 1 1 1 2 2 2 2 2 2 2 2 2 3 3 3 3 4
2 2 2 2 2 2 2 1 1 1 1 0 1 1 1 2 2 2 1 2 2 2 1 1 1 1 1 1 1 1 2 2 2 2 2 2 2 3 3 3 3 3 3 4
1 1 2 2 2 2 2 2 2 1 1 0 0 0 0 0 1 1 1 1 1 1 1 1 1 1 1 1 1 1 1 2 2 2 2 2 3 3 3 3 4 4 4 4
0 1 1 1 1 2 2 2 2 2 2 2 1 1 1 1 1 1 1 1 1 1 1 1 1 1 1 1 1 2 2 2 2 2 2 2 3 3 3 4 4 4 4 4
Wind_Direction
218 223 175 202 208 177 178 183 186 225 227 251 241 220 206 171 151 151 159 163 165 164 162 156 150 152 155 159 162 155 151 171 190 186 176 160 144 141 125 127 163 172 111 360
301 270 176 231 260 197 200 197 215 236 258 261 235 134 144 159 161 172 181 178 171 161 159 165 165 166 168 170 168 158 168 188 190 174 172 178 170 152 145 153 188 161 199 317
230 294 71 253 248 201 203 215 188 215 245 246 131 173 190 190 186 188 188 177 171 172 177 180 178 173 174 179 165 165 177 187 187 183 184 190 168 145 184 216 210 215 273 297
139 107 217 239 251 187 174 218 205 230 263 234 214 218 201 180 186 193 180 173 174 175 176 177 169 164 161 156 158 167 171 180 190 184 187 180 166 194 225 217 210 219 236 260
124 167 262 291 268 167 173 249 255 190 10 39 66 51 1 329 189 188 180 175 173 172 164 153 161 159 146 142 145 152 163 176 192 185 183 178 193 217 220 204 227 252 254 276
126 158 221 243 285 264 130 262 279 157 162 133 92 98 266 304 71 119 116 131 141 139 135 145 151 146 143 148 153 178 187 184 172 164 172 185 202 203 196 177 221 272 349 318
149 199 254 268 303 78 156 242 259 196 187 171 189 216 236 162 112 123 112 119 130 136 143 150 147 139 145 153 178 192 154 128 114 122 149 157 158 164 164 147 101 14 342 330
145 186 255 326 35 149 226 281 237 185 180 158 164 67 63 96 119 112 96 100 116 122 119 121 135 138 135 153 181 140 122 113 105 92 93 103 117 107 105 110 97 345 328 324
185 207 247 294 247 265 212 178 218 169 165 137 124 95 47 52 83 98 108 106 114 125 118 109 125 135 139 154 117 110 111 116 107 84 81 88 114 128 130 126 170 268 301 305
253 270 283 288 296 327 30 165 166 148 146 136 135 132 90 84 79 76 86 98 108 113 115 117 115 113 127 125 118 104 108 114 108 105 80 72 84 151 169 192 212 247 268 283
269 285 319 311 304 342 31 63 88 86 99 123 119 109 101 90 90 87 81 95 120 124 131 147 137 121 118 124 121 119 115 109 116 124 137 116 43 236 222 219 202 201 224 233
224 228 209 252 274 312 84 81 107 104 81 91 113 125 111 101 109 105 101 96 111 123 129 153 138 131 135 140 138 137 136 138 133 150 177 185 204 335 346 328 345 268 230 235
227 235 218 238 280 310 156 141 124 121 132 116 102 118 114 102 99 96 100 109 128 152 143 147 139 142 167 156 151 151 152 161 155 174 197 209 217 223 319 352 12 24 3 334
227 162 221 244 261 320 100 93 88 86 88 107 113 104 97 85 90 101 126 147 127 123 125 136 147 189 194 162 148 145 147 155 154 176 194 215 227 230 221 233 307 328 332 330
254 215 201 200 131 95 104 105 98 92 91 87 108 122 126 127 153 200 208 132 118 120 134 158 176 211 199 165 155 157 153 165 164 175 194 242 248 241 240 234 250 300 329 330
214 93 122 123 130 146 136 133 141 165 153 159 155 159 194 198 206 189 130 143 153 175 193 191 200 206 179 157 152 155 165 172 138 148 179 244 284 278 268 254 259 280 295 301
142 163 169 177 204 198 205 196 189 184 170 181 200 189 110 87 72 114 157 219 196 194 187 184 201 198 175 166 162 171 177 183 126 102 226 242 241 263 270 261 259 265 276 283
203 207 199 198 202 200 216 217 188 183 185 182 168 149 159 164 189 208 240 260 76 55 234 218 192 178 177 171 157 161 165 163 163 197 227 248 271 272 271 270 267 270 286 293
185 194 213 214 204 188 185 187 187 185 179 161 165 185 202 205 196 203 218 154 181 235 261 236 186 175 198 218 148 154 160 167 184 247 245 252 276 278 271 268 271 274 279 285
194 188 193 199 185 180 182 182 167 169 181 165 164 171 195 213 190 191 191 219 234 237 229 199 177 185 205 207 154 157 176 193 220 255 268 264 269 275 274 270 272 274 276 275
202 191 186 178 186 194 188 178 166 182 196 172 180 199 208 211 198 191 190 244 266 233 194 183 179 194 205 201 183 183 194 210 231 246 254 262 270 275 278 279 280 278 275 273
221 192 186 175 165 185 203 186 181 187 181 189 207 192 179 198 206 213 228 230 233 209 186 194 200 201 202 206 211 208 218 231 246 252 254 256 260 267 274 280 281 281 278 274
223 204 194 194 198 197 178 171 176 188 192 203 204 194 194 207 205 200 243 252 216 196 194 217 214 204 198 197 217 226 230 239 248 251 257 262 264 266 271 277 278 278 279 279
215 207 201 190 161 155 179 210 179 191 203 217 209 200 193 201 243 242 232 221 209 198 197 212 216 220 214 203 219 239 239 241 249 255 260 265 266 267 269 271 277 282 283 283
196 184 163 155 166 186 194 180 137 132 125 185 244 231 212 200 210 232 223 206 204 189 212 227 218 234 226 216 227 239 243 242 246 252 256 262 269 272 275 277 279 280 280 281
188 182 193 196 191 183 172 161 165 175 158 151 307 290 248 213 180 196 206 205 208 210 231 247 235 239 246 243 241 248 256 262 265 263 261 264 266 270 274 278 279 277 279 283
141 169 150 146 169 167 159 159 172 188 185 180 215 246 223 191 172 189 196 201 202 207 224 234 236 241 257 267 269 267 264 260 258 260 259 263 266 268 272 276 279 281 284 286